| time (UTC) | temp F | wind direction | speed MPH | gust MPH | rain 1hr in | rain 24hr in | rain mn in | humidity % | barometer mb |
| 20260507191018 | 68 | 245 | 6.0 | 9.0 | 0.00 | 0.00 | 0.00 | 13 | 1020.1 |
| 20260507190108 | 68 | 245 | 6.0 | 9.0 | 0.00 | 0.00 | 0.00 | 13 | 1020.2 |
| 20260507185119 | 68 | 238 | 8.0 | 12.0 | 0.00 | 0.00 | 0.00 | 13 | 1019.9 |
| 20260507184049 | 69 | 231 | 6.0 | 11.0 | 0.00 | 0.00 | 0.00 | 14 | 1020.1 |
| 20260507183039 | 68 | 221 | 5.0 | 14.0 | 0.00 | 0.00 | 0.00 | 12 | 1020.1 |
| 20260507182029 | 68 | 226 | 9.0 | 18.0 | 0.00 | 0.00 | 0.00 | 15 | 1020.3 |
| 20260507181019 | 67 | 186 | 4.0 | 11.0 | 0.00 | 0.00 | 0.00 | 15 | 1020.5 |
| 20260507180110 | 66 | 209 | 8.0 | 16.0 | 0.00 | 0.00 | 0.00 | 22 | 1020.2 |
| 20260507175100 | 65 | 189 | 4.0 | 10.0 | 0.00 | 0.00 | 0.00 | 26 | 1020.6 |
| 20260507174050 | 64 | 234 | 3.0 | 7.0 | 0.00 | 0.00 | 0.00 | 27 | 1020.7 |
| 20260507173040 | 63 | 358 | 4.0 | 9.0 | 0.00 | 0.00 | 0.00 | 28 | 1020.9 |
| 20260507172030 | 62 | 7 | 6.0 | 10.0 | 0.00 | 0.00 | 0.00 | 30 | 1020.8 |
| 20260507171020 | 62 | 49 | 4.0 | 8.0 | 0.00 | 0.00 | 0.00 | 31 | 1021.2 |
| 20260507170111 | 62 | 18 | 4.0 | 8.0 | 0.00 | 0.00 | 0.00 | 31 | 1021.1 |
| 20260507165121 | 60 | 204 | 2.0 | 9.0 | 0.00 | 0.00 | 0.00 | 32 | 1021.3 |
| 20260507164051 | 60 | 17 | 5.0 | 9.0 | 0.00 | 0.00 | 0.00 | 33 | 1021.3 |
| 20260507163041 | 60 | 27 | 4.0 | 10.0 | 0.00 | 0.00 | 0.00 | 35 | 1021.4 |
| 20260507162031 | 59 | 358 | 3.0 | 7.0 | 0.00 | 0.00 | 0.00 | 35 | 1021.5 |
| 20260507161021 | 57 | 357 | 3.0 | 8.0 | 0.00 | 0.00 | 0.00 | 37 | 1021.5 |
| 20260507160112 | 56 | 29 | 2.0 | 8.0 | 0.00 | 0.00 | 0.00 | 41 | 1021.6 |
| 20260507155102 | 55 | 346 | 5.0 | 8.0 | 0.00 | 0.00 | 0.00 | 44 | 1021.5 |
| 20260507154052 | 54 | 9 | 5.0 | 8.0 | 0.00 | 0.00 | 0.00 | 46 | 1021.8 |
| 20260507153042 | 54 | 9 | 5.0 | 7.0 | 0.00 | 0.00 | 0.00 | 48 | 1021.8 |
| 20260507152052 | 52 | 30 | 4.0 | 7.0 | 0.00 | 0.00 | 0.00 | 50 | 1021.9 |
| 20260507151122 | 51 | 23 | 4.0 | 8.0 | 0.00 | 0.00 | 0.00 | 52 | 1021.9 |
| 20260507150113 | 50 | 9 | 5.0 | 8.0 | 0.00 | 0.00 | 0.00 | 54 | 1022.0 |
| 20260507145103 | 49 | 9 | 6.0 | 9.0 | 0.00 | 0.00 | 0.00 | 56 | 1022.1 |
| 20260507144053 | 48 | 17 | 5.0 | 7.0 | 0.00 | 0.00 | 0.00 | 58 | 1022.3 |
| 20260507143043 | 48 | 21 | 5.0 | 7.0 | 0.00 | 0.00 | 0.00 | 60 | 1022.3 |
| 20260507142033 | 46 | 19 | 5.0 | 7.0 | 0.00 | 0.00 | 0.00 | 62 | 1022.3 |
| 20260507141023 | 45 | 7 | 3.0 | 5.0 | 0.00 | 0.00 | 0.00 | 65 | 1022.3 |
| 20260507140114 | 42 | 30 | 3.0 | 7.0 | 0.00 | 0.00 | 0.00 | 71 | 1022.4 |
| 20260507135104 | 41 | 9 | 2.0 | 5.0 | 0.00 | 0.00 | 0.00 | 72 | 1022.4 |
| 20260507134054 | 38 | 60 | 2.0 | 4.0 | 0.00 | 0.00 | 0.00 | 79 | 1022.4 |
| 20260507133044 | 36 | 44 | 1.0 | 4.0 | 0.00 | 0.00 | 0.00 | 81 | 1022.2 |
| 20260507132054 | 33 | 151 | 3.0 | 6.0 | 0.00 | 0.00 | 0.00 | 88 | 1022.3 |
| 20260507131024 | 31 | 146 | 1.0 | 4.0 | 0.00 | 0.00 | 0.00 | 91 | 1022.3 |
| 20260507130115 | 30 | 64 | 1.0 | 4.0 | 0.00 | 0.00 | 0.00 | 92 | 1022.2 |
| 20260507125105 | 30 | 236 | 1.0 | 4.0 | 0.00 | 0.00 | 0.00 | 93 | 1022.1 |
| 20260507124055 | 29 | 131 | 3.0 | 5.0 | 0.00 | 0.00 | 0.00 | 93 | 1022.1 |
| 20260507123105 | 29 | 181 | 1.0 | 4.0 | 0.00 | 0.00 | 0.00 | 93 | 1022.0 |
| 20260507122035 | 29 | 174 | 3.0 | 6.0 | 0.00 | 0.00 | 0.00 | 92 | 1022.0 |
| 20260507121025 | 29 | 194 | 1.0 | 3.0 | 0.00 | 0.00 | 0.00 | 92 | 1022.0 |
| 20260507120115 | 29 | 167 | 2.0 | 5.0 | 0.00 | 0.00 | 0.00 | 91 | 1022.0 |
| 20260507115106 | 30 | 1 | 2.0 | 4.0 | 0.00 | 0.00 | 0.00 | 91 | 1022.0 |
| 20260507114116 | 30 | 163 | 2.0 | 5.0 | 0.00 | 0.00 | 0.00 | 91 | 1022.0 |
| 20260507113126 | 30 | 202 | 1.0 | 4.0 | 0.00 | 0.00 | 0.00 | 91 | 1022.3 |
| 20260507112036 | 30 | 176 | 3.0 | 5.0 | 0.00 | 0.00 | 0.00 | 90 | 1022.3 |
| 20260507111025 | 31 | 208 | 0.0 | 6.0 | 0.00 | 0.00 | 0.00 | 89 | 1022.4 |
| 20260507110015 | 31 | 154 | 1.0 | 5.0 | 0.00 | 0.00 | 0.00 | 88 | 1022.4 |
| 20260507105107 | 32 | 51 | 2.0 | 4.0 | 0.00 | 0.00 | 0.00 | 87 | 1022.4 |
| 20260507104057 | 31 | 139 | 2.0 | 6.0 | 0.00 | 0.00 | 0.00 | 90 | 1022.5 |
| 20260507103047 | 31 | 192 | 1.0 | 6.0 | 0.00 | 0.00 | 0.00 | 88 | 1022.6 |
| 20260507102037 | 31 | 200 | 1.0 | 5.0 | 0.00 | 0.00 | 0.00 | 88 | 1022.4 |
| 20260507101026 | 31 | 193 | 1.0 | 2.0 | 0.00 | 0.00 | 0.00 | 89 | 1022.4 |
| 20260507100016 | 31 | 0.0 | 1.0 | 0.00 | 0.00 | 0.00 | 87 | 1022.6 | |
| 20260507095108 | 32 | 129 | 0.0 | 2.0 | 0.00 | 0.00 | 0.00 | 87 | 1022.5 |
| 20260507094057 | 31 | 176 | 1.0 | 2.0 | 0.00 | 0.00 | 0.00 | 85 | 1022.4 |
| 20260507093047 | 32 | 139 | 0.0 | 2.0 | 0.00 | 0.00 | 0.00 | 83 | 1022.2 |
| 20260507092037 | 32 | 140 | 1.0 | 3.0 | 0.00 | 0.00 | 0.00 | 84 | 1022.1 |
| 20260507091027 | 32 | 185 | 2.0 | 3.0 | 0.00 | 0.00 | 0.00 | 82 | 1022.1 |
| 20260507090017 | 33 | 0.0 | 3.0 | 0.00 | 0.00 | 0.00 | 82 | 1022.1 | |
| 20260507085109 | 33 | 169 | 2.0 | 4.0 | 0.00 | 0.00 | 0.00 | 82 | 1022.2 |
| 20260507084059 | 33 | 143 | 1.0 | 3.0 | 0.00 | 0.00 | 0.00 | 81 | 1022.2 |
| 20260507083049 | 34 | 50 | 0.0 | 2.0 | 0.00 | 0.00 | 0.00 | 81 | 1022.1 |
| 20260507082039 | 34 | 149 | 0.0 | 2.0 | 0.00 | 0.00 | 0.00 | 79 | 1022.1 |
| 20260507081049 | 35 | 149 | 2.0 | 2.0 | 0.00 | 0.00 | 0.00 | 77 | 1022.2 |
| 20260507080019 | 36 | 87 | 0.0 | 2.0 | 0.00 | 0.00 | 0.00 | 76 | 1022.3 |
| 20260507075110 | 37 | 152 | 1.0 | 2.0 | 0.00 | 0.00 | 0.00 | 73 | 1022.4 |
| 20260507074100 | 37 | 160 | 1.0 | 2.0 | 0.00 | 0.00 | 0.00 | 75 | 1022.3 |
| 20260507073110 | 37 | 203 | 2.0 | 4.0 | 0.00 | 0.00 | 0.00 | 72 | 1022.5 |
| 20260507072040 | 38 | 118 | 0.0 | 3.0 | 0.00 | 0.00 | 0.00 | 71 | 1022.4 |
| 20260507071030 | 40 | 125 | 0.0 | 3.0 | 0.00 | 0.00 | 0.00 | 67 | 1022.4 |
| 20260507070040 | 40 | 123 | 2.0 | 2.0 | 0.00 | 0.00 | 0.00 | 67 | 1022.6 |
| 20260507065111 | 41 | 143 | 2.0 | 4.0 | 0.00 | 0.00 | 0.00 | 66 | 1022.4 |
| 20260507064101 | 41 | 151 | 1.0 | 3.0 | 0.00 | 0.00 | 0.00 | 65 | 1022.3 |
| 20260507063051 | 42 | 139 | 3.0 | 4.0 | 0.00 | 0.00 | 0.00 | 62 | 1022.1 |
| 20260507062041 | 43 | 156 | 2.0 | 4.0 | 0.00 | 0.00 | 0.00 | 61 | 1022.0 |
| 20260507061031 | 44 | 182 | 1.0 | 4.0 | 0.00 | 0.00 | 0.00 | 59 | 1022.0 |
| 20260507060021 | 46 | 150 | 2.0 | 3.0 | 0.00 | 0.00 | 0.00 | 57 | 1021.8 |
| 20260507055112 | 46 | 188 | 2.0 | 4.0 | 0.00 | 0.00 | 0.00 | 56 | 1021.9 |
| 20260507054101 | 46 | 197 | 3.0 | 6.0 | 0.00 | 0.00 | 0.00 | 56 | 1021.9 |
| 20260507053051 | 46 | 191 | 2.0 | 4.0 | 0.00 | 0.00 | 0.00 | 53 | 1021.7 |
| 20260507052041 | 47 | 174 | 1.0 | 3.0 | 0.00 | 0.00 | 0.00 | 50 | 1021.7 |
| 20260507051031 | 48 | 162 | 2.0 | 4.0 | 0.00 | 0.00 | 0.00 | 45 | 1021.6 |
| 20260507050021 | 49 | 248 | 2.0 | 5.0 | 0.00 | 0.00 | 0.00 | 45 | 1021.6 |
| 20260507045133 | 50 | 11 | 3.0 | 8.0 | 0.00 | 0.00 | 0.00 | 33 | 1021.3 |
| 20260507044103 | 48 | 19 | 2.0 | 3.0 | 0.00 | 0.00 | 0.00 | 27 | 1020.9 |
| 20260507043053 | 46 | 170 | 2.0 | 4.0 | 0.00 | 0.00 | 0.00 | 28 | 1020.8 |
| 20260507042043 | 47 | 23 | 1.0 | 3.0 | 0.00 | 0.00 | 0.00 | 29 | 1020.3 |
| 20260507041033 | 49 | 66 | 0.0 | 2.0 | 0.00 | 0.00 | 0.00 | 28 | 1020.0 |
| 20260507040023 | 52 | 105 | 0.0 | 2.0 | 0.00 | 0.00 | 0.00 | 26 | 1019.9 |
| 20260507035114 | 53 | 187 | 2.0 | 6.0 | 0.00 | 0.00 | 0.00 | 22 | 1019.7 |
| 20260507034104 | 54 | 179 | 4.0 | 6.0 | 0.00 | 0.00 | 0.00 | 22 | 1019.6 |
| 20260507033054 | 53 | 208 | 6.0 | 10.0 | 0.00 | 0.00 | 0.00 | 22 | 1019.5 |
| 20260507032104 | 52 | 211 | 5.0 | 7.0 | 0.00 | 0.00 | 0.00 | 23 | 1019.5 |
| 20260507031054 | 52 | 195 | 3.0 | 4.0 | 0.00 | 0.00 | 0.00 | 24 | 1019.4 |
| 20260507030024 | 52 | 191 | 2.0 | 4.0 | 0.00 | 0.00 | 0.00 | 24 | 1019.2 |
| 20260507025115 | 51 | 194 | 2.0 | 6.0 | 0.00 | 0.00 | 0.00 | 25 | 1019.1 |
| 20260507024105 | 52 | 158 | 2.0 | 2.0 | 0.00 | 0.00 | 0.00 | 24 | 1019.0 |
| 20260507023055 | 53 | 169 | 1.0 | 3.0 | 0.00 | 0.00 | 0.00 | 24 | 1018.8 |
| 20260507022045 | 54 | 139 | 1.0 | 3.0 | 0.00 | 0.00 | 0.00 | 22 | 1018.8 |
| 20260507021034 | 55 | 115 | 2.0 | 6.0 | 0.00 | 0.00 | 0.00 | 22 | 1018.6 |
| 20260507020025 | 56 | 134 | 2.0 | 3.0 | 0.00 | 0.00 | 0.00 | 21 | 1018.3 |
| 20260507015116 | 58 | 153 | 2.0 | 4.0 | 0.00 | 0.00 | 0.00 | 20 | 1018.0 |
| 20260507014126 | 58 | 200 | 3.0 | 6.0 | 0.00 | 0.00 | 0.00 | 19 | 1018.0 |
| 20260507013056 | 59 | 220 | 3.0 | 5.0 | 0.00 | 0.00 | 0.00 | 19 | 1017.9 |
| 20260507012046 | 60 | 199 | 4.0 | 9.0 | 0.00 | 0.00 | 0.00 | 19 | 1017.7 |
| 20260507011036 | 60 | 241 | 4.0 | 10.0 | 0.00 | 0.00 | 0.00 | 18 | 1017.7 |
| 20260507010026 | 61 | 215 | 4.0 | 10.0 | 0.00 | 0.00 | 0.00 | 18 | 1017.5 |
| 20260507005016 | 62 | 241 | 5.0 | 12.0 | 0.00 | 0.00 | 0.00 | 17 | 1017.4 |
| 20260507004107 | 62 | 253 | 6.0 | 12.0 | 0.00 | 0.00 | 0.00 | 17 | 1017.2 |
| 20260507003057 | 62 | 253 | 6.0 | 12.0 | 0.00 | 0.00 | 0.00 | 17 | 1017.2 |
| 20260507002047 | 62 | 247 | 6.0 | 16.0 | 0.00 | 0.00 | 0.00 | 17 | 1017.1 |
| 20260507001037 | 62 | 222 | 6.0 | 17.0 | 0.00 | 0.00 | 0.00 | 17 | 1017.0 |
| 20260507000027 | 63 | 237 | 5.0 | 11.0 | 0.00 | 0.00 | 0.00 | 17 | 1016.9 |
| 20260506235017 | 63 | 228 | 5.0 | 12.0 | 0.00 | 0.00 | 0.00 | 16 | 1016.9 |
| 20260506234108 | 63 | 232 | 6.0 | 14.0 | 0.00 | 0.00 | 0.00 | 18 | 1016.7 |
| 20260506233058 | 62 | 224 | 5.0 | 14.0 | 0.00 | 0.00 | 0.00 | 18 | 1016.5 |
| 20260506232048 | 63 | 214 | 7.0 | 15.0 | 0.00 | 0.00 | 0.00 | 17 | 1016.6 |
| 20260506231038 | 63 | 238 | 10.0 | 18.0 | 0.00 | 0.00 | 0.00 | 17 | 1016.7 |
| 20260506230048 | 63 | 214 | 7.0 | 15.0 | 0.00 | 0.00 | 0.00 | 17 | 1016.5 |
| 20260506225039 | 63 | 263 | 7.0 | 12.0 | 0.00 | 0.00 | 0.00 | 17 | 1016.6 |
| 20260506224109 | 62 | 237 | 7.0 | 18.0 | 0.00 | 0.00 | 0.00 | 17 | 1016.5 |
| 20260506223059 | 63 | 232 | 8.0 | 16.0 | 0.00 | 0.00 | 0.00 | 17 | 1016.4 |
| 20260506222049 | 63 | 207 | 6.0 | 18.0 | 0.00 | 0.00 | 0.00 | 17 | 1016.4 |
| 20260506221039 | 62 | 234 | 8.0 | 13.0 | 0.00 | 0.00 | 0.00 | 18 | 1016.5 |
| 20260506220029 | 62 | 213 | 5.0 | 15.0 | 0.00 | 0.00 | 0.00 | 19 | 1016.5 |
| 20260506215019 | 62 | 229 | 12.0 | 21.0 | 0.00 | 0.00 | 0.00 | 17 | 1016.5 |
| 20260506214110 | 63 | 213 | 10.0 | 16.0 | 0.00 | 0.00 | 0.00 | 18 | 1016.6 |
| 20260506213100 | 62 | 254 | 4.0 | 10.0 | 0.00 | 0.00 | 0.00 | 16 | 1016.4 |
| 20260506212110 | 62 | 274 | 5.0 | 16.0 | 0.00 | 0.00 | 0.00 | 17 | 1016.6 |
| 20260506211040 | 62 | 264 | 7.0 | 18.0 | 0.00 | 0.00 | 0.00 | 19 | 1016.7 |
| 20260506210030 | 62 | 224 | 9.0 | 23.0 | 0.00 | 0.00 | 0.00 | 18 | 1016.6 |
| 20260506205020 | 62 | 262 | 6.0 | 15.0 | 0.00 | 0.00 | 0.00 | 17 | 1016.7 |
| 20260506204110 | 61 | 252 | 6.0 | 15.0 | 0.00 | 0.00 | 0.00 | 20 | 1016.7 |
| 20260506203101 | 61 | 237 | 8.0 | 20.0 | 0.00 | 0.00 | 0.00 | 20 | 1016.7 |
| 20260506202050 | 61 | 233 | 6.0 | 14.0 | 0.00 | 0.00 | 0.00 | 22 | 1016.8 |
| 20260506201100 | 61 | 265 | 5.0 | 14.0 | 0.00 | 0.00 | 0.00 | 19 | 1016.7 |
| 20260506200030 | 61 | 245 | 9.0 | 19.0 | 0.00 | 0.00 | 0.00 | 21 | 1016.6 |
| 20260506195041 | 60 | 233 | 4.0 | 11.0 | 0.00 | 0.00 | 0.00 | 22 | 1016.6 |
| 20260506194112 | 60 | 225 | 9.0 | 17.0 | 0.00 | 0.00 | 0.00 | 21 | 1016.9 |
| 20260506193102 | 61 | 308 | 4.0 | 13.0 | 0.00 | 0.00 | 0.00 | 20 | 1016.7 |
| 20260506192051 | 59 | 230 | 9.0 | 17.0 | 0.00 | 0.00 | 0.00 | 21 | 1016.8 |